Regional Weather Roundup
Issued by NWS

Home | Current Version | Previous Version | Graphics & Text | Print | Product List | Glossary On
Versions: 1 2 3 4 5 6 7 8 9 10 11 12 13 14 15 16 17 18 19 20 21 22 23 24 25 26 27 28 29 30 31 32 33 34 35 36 37 38 39 40 41 42 43 44 45 46 47 48 49 50
000
ASUS44 KMEG 051200
RWRTN
TENNESSEE HOURLY STATE WEATHER ROUNDUP
NATIONAL WEATHER SERVICE MEMPHIS TN
700 AM CDT THU MAY 05 2016

TNZ002-004-019-021-049-052-054-088>092-051300-
WEST TENNESSEE

CITY           SKY/WX    TMP DP  RH WIND       PRES   REMARKS
MEMPHIS INTL   MOSUNNY   54  46  74 W5        29.92R
NWS MEMPHIS      N/A     48 N/A N/A MISG        N/A
JACKSON        SUNNY     50  44  80 W8        29.89R
DYERSBURG      SUNNY     52  43  71 W6        29.91R
UNION CITY     SUNNY     50  45  81 W7        29.87R
LEXINGTON      SUNNY     46  45  93 W7        29.85R
$$

TNZ008-025-027-028-033-062-065-066-051300-
NORTH MIDDLE TENNESSEE

CITY           SKY/WX    TMP DP  RH WIND       PRES   REMARKS
NASHVILLE      MOSUNNY   48  42  80 CALM      29.81S
CLARKSVILLE    SUNNY     48  42  80 W9        29.82R
COOKEVILLE     MOSUNNY   43  43 100 CALM      29.78R
CROSSVILLE     CLOUDY    42  40  92 NW5       29.79R
$$

TNZ061-075-076-078-094-096-097-051300-
SOUTH MIDDLE TENNESSEE

CITY           SKY/WX    TMP DP  RH WIND       PRES   REMARKS
TULLAHOMA      SUNNY     43  43 100 W3        29.81S
WINCHESTER     SUNNY     43  41  93 CALM      29.82S
MCMINNVILLE    SUNNY     46  45  93 SW5       29.80S
COLUMBIA       SUNNY    N/A N/A N/A SW6       29.82R
SHELBYVILLE    SUNNY     43  43 100 CALM      29.83R
$$

TNZ017-018-042-046-047-051300-
NORTHEAST TENNESSEE

CITY           SKY/WX    TMP DP  RH WIND       PRES   REMARKS
TRI CITIES     CLOUDY    45  40  82 N6        29.74R
$$

TNZ012-013-036-069-073-074-051300-
CENTRAL EAST TENNESSEE

CITY           SKY/WX    TMP DP  RH WIND       PRES   REMARKS
KNOXVILLE      PTSUNNY   48  45  89 W7        29.77R
OAK RIDGE      CLOUDY    47  44  90 CALM      29.79R
GATLINBURG     PTSUNNY   46  43  87 CALM      29.77R
$$

TNZ083-085-099-051300-
SOUTHEAST TENNESSEE

CITY           SKY/WX    TMP DP  RH WIND       PRES   REMARKS
CHATTANOOGA    MOSUNNY   50  43  77 CALM      29.81R
$$

SKY/WX REPORTED AS FAIR MEANS FEW OR NO CLOUDS BELOW
12 THOUSAND FEET.





USA.gov is the U.S. government's official web portal to all federal, state and local government web resources and services.